Weather History for Vicksburg, MS

Change the Weather History Date:

Monday, May 6, 2013

  Actual Average Record
Temperature  
Mean Temperature 61 °F 70 °F  
Max Temperature 71 °F 81 °F 93 °F (1952)
Min Temperature 50 °F 59 °F 41 °F (1957)
Degree Days  
Heating Degree Days 4 1  
Month to date heating degree days 40 6  
Since 1 July heating degree days 2320 2347  
Cooling Degree Days 0 6  
Month to date cooling degree days 7 32  
Year to date cooling degree days 129 150  
Growing Degree Days 11 (Base 50)    
Moisture  
Dew Point 51 °F    
Average Humidity 77    
Maximum Humidity 100    
Minimum Humidity 53    
Precipitation  
Precipitation 0.00 in 0.17 in 2.28 in (1960)
Month to date precipitation 1.82 1.06  
Year to date precipitation 32.06 21.40  
Sea Level Pressure  
Sea Level Pressure 30.01 in    
Wind  
Wind Speed 5 mph (West)    
Max Wind Speed 13 mph    
Max Gust Speed 18 mph    
Visibility 9 miles    
Events      
T = Trace of Precipitation, MM = Missing Value Source: NWS Daily Summary

Daily Weather History Graph

Daily Weather History Graph

Search for Another Location

Airport:

Trip Planner

Search our weather history database for the weather conditions in past years. The results will help you decide how hot, cold, wet, or windy it might be!

Date:

Astronomy

May. 06, 2013 Rise Set
Actual Time 6:12 AM CDT 7:49 PM CDT
Civil Twilight 5:46 AM CDT 8:15 PM CDT
Nautical Twilight 5:14 AM CDT 8:47 PM CDT
Astronomical Twilight 4:41 AM CDT 9:20 PM CDT
Moon 4:04 AM CDT (5/6) 4:58 PM CDT (5/6)
Length of Visible Light 14h 29m
Length of Day
13h 36m
Waning Crescent, 11% of the Moon is Illuminated
May 6
Waning Crescent
May 9
New
May 17
First Quarter
May 24
Full
May 31
Last Quarter

Hourly Weather History & Observations

Time (CDT) Temp. Dew Point Humidity Pressure Visibility Wind Dir Wind Speed Gust Speed Precip Events Conditions
12:53 AM 53.1 °F 44.1 °F 71% 30.02 in 10.0 mi Variable 4.6 mph - N/A   Overcast
1:53 AM 54.0 °F 45.0 °F 72% 30.00 in 10.0 mi WSW 4.6 mph - N/A   Overcast
2:53 AM 53.1 °F 46.0 °F 77% 29.99 in 10.0 mi WSW 4.6 mph - N/A   Overcast
3:53 AM 51.1 °F 46.0 °F 83% 29.99 in 10.0 mi West 5.8 mph - N/A   Partly Cloudy
4:53 AM 52.0 °F 46.0 °F 80% 29.99 in 10.0 mi WSW 5.8 mph - N/A   Mostly Cloudy
5:53 AM 51.1 °F 46.0 °F 83% 30.01 in 10.0 mi West 3.5 mph - N/A   Mostly Cloudy
6:53 AM 52.0 °F 46.9 °F 83% 30.02 in 10.0 mi Variable 4.6 mph - N/A   Overcast
7:53 AM 53.1 °F 46.9 °F 80% 30.03 in 10.0 mi West 5.8 mph - N/A   Overcast
8:53 AM 55.0 °F 48.0 °F 77% 30.04 in 10.0 mi West 3.5 mph - N/A   Overcast
9:53 AM 57.0 °F 50.0 °F 77% 30.04 in 10.0 mi West 5.8 mph - N/A   Overcast
10:53 AM 60.1 °F 50.0 °F 69% 30.04 in 10.0 mi Variable 4.6 mph - N/A   Overcast
11:53 AM 66.0 °F 53.1 °F 63% 30.03 in 10.0 mi West 8.1 mph - N/A   Mostly Cloudy
12:53 PM 68.0 °F 53.1 °F 59% 30.01 in 10.0 mi WNW 9.2 mph 16.1 mph N/A   Mostly Cloudy
1:53 PM 68.0 °F 54.0 °F 61% 30.00 in 10.0 mi NW 9.2 mph - N/A   Overcast
2:53 PM 69.1 °F 53.1 °F 57% 29.99 in 10.0 mi WNW 8.1 mph - N/A   Overcast
3:53 PM 71.1 °F 54.0 °F 55% 29.96 in 10.0 mi WNW 9.2 mph - N/A   Overcast
4:53 PM 68.0 °F 55.9 °F 65% 29.97 in 10.0 mi North 6.9 mph - N/A   Overcast
5:53 PM 69.1 °F 55.9 °F 63% 29.98 in 10.0 mi NNE 6.9 mph - N/A   Overcast
6:53 PM 66.9 °F 57.0 °F 70% 29.99 in 10.0 mi Calm Calm - N/A   Overcast
7:53 PM 60.1 °F 55.9 °F 86% 29.99 in 10.0 mi Calm Calm - N/A   Clear
8:53 PM 55.9 °F 55.0 °F 97% 30.01 in 10.0 mi Calm Calm - N/A   Clear
9:53 PM 53.1 °F 52.0 °F 96% 30.04 in 5.0 mi Calm Calm - N/A   Clear
10:53 PM 52.0 °F 51.1 °F 97% 30.04 in 5.0 mi WSW 3.5 mph - N/A   Partly Cloudy
11:29 PM 53.6 °F 51.8 °F 94% 30.01 in 2.0 mi Calm Calm - N/A   Clear
11:39 PM 51.8 °F 51.8 °F 100% 30.00 in 6.0 mi Calm Calm - N/A   Clear
11:53 PM 51.1 °F 50.0 °F 96% 30.02 in 4.0 mi Calm Calm - N/A   Clear
11:58 PM 51.8 °F 50.0 °F 94% 30.00 in 1.8 mi Calm Calm - N/A   Clear